When you browse on this site, cookies collect data to enhance your experience and personalize the content and advertising you see.
Visit our Privacy Policy to learn more. By continuing to use the site, you agree to this use of cookies and data.
  • En España
  • Lista de países
  • Para 7 días
  • Temperatura del agua
  • El tiempo en el mapa
  • Informadores
  • user-avatar
    Iniciar sesión

    Tiempo cada hora Namibe

    Hoy, 12 Diciembre, Jueves

    Tiempo Temperatura Precipitaciones Viento Presión Humedad
    00:00 +23°C° 0 mm 4 mps 758 mmHg 76%
    01:00 +23°C° 0 mm 4 mps 758 mmHg 72%
    02:00 +23°C° 0 mm 4 mps 758 mmHg 74%
    03:00 +22°C° 0 mm 4 mps 757 mmHg 75%
    04:00 +22°C° 0 mm 4 mps 757 mmHg 76%
    05:00 +22°C° 0 mm 4 mps 757 mmHg 75%
    06:00 +22°C° 0 mm 4 mps 758 mmHg 74%
    07:00 +23°C° 0 mm 4 mps 758 mmHg 69%
    08:00 +26°C° 0 mm 4 mps 758 mmHg 61%
    09:00 +27°C° 0 mm 4 mps 758 mmHg 54%
    10:00 +29°C° 0 mm 4 mps 758 mmHg 47%
    11:00 +30°C° 0 mm 5 mps 757 mmHg 46%
    12:00 +32°C° 0 mm 6 mps 757 mmHg 46%
    13:00 +33°C° 0 mm 6 mps 756 mmHg 45%
    14:00 +32°C° 0 mm 6 mps 756 mmHg 47%
    15:00 +30°C° 0 mm 6 mps 755 mmHg 50%
    16:00 +30°C° 0 mm 7 mps 755 mmHg 52%
    17:00 +28°C° 0 mm 6 mps 756 mmHg 61%
    18:00 +27°C° 0 mm 6 mps 756 mmHg 69%
    19:00 +26°C° 0 mm 6 mps 757 mmHg 77%
    20:00 +25°C° 0 mm 5 mps 757 mmHg 76%
    21:00 +25°C° 0 mm 5 mps 758 mmHg 75%
    22:00 +25°C° 0 mm 4 mps 758 mmHg 74%
    23:00 +25°C° 0 mm 4 mps 758 mmHg 74%

    Mañana, 13 Diciembre, Viernes

    Tiempo Temperatura Precipitaciones Viento Presión Humedad
    00:00 +25°C° 0 mm 4 mps 758 mmHg 74%
    01:00 +25°C° 0 mm 3 mps 758 mmHg 74%
    02:00 +24°C° 0 mm 3 mps 757 mmHg 75%
    03:00 +24°C° 0 mm 3 mps 757 mmHg 76%
    04:00 +24°C° 0 mm 3 mps 757 mmHg 77%
    05:00 +24°C° 0 mm 3 mps 757 mmHg 75%
    06:00 +24°C° 0 mm 3 mps 758 mmHg 73%
    07:00 +25°C° 0 mm 3 mps 758 mmHg 71%
    08:00 +27°C° 0 mm 3 mps 758 mmHg 62%
    09:00 +28°C° 0 mm 3 mps 758 mmHg 54%
    10:00 +30°C° 0 mm 3 mps 758 mmHg 45%
    11:00 +30°C° 0 mm 4 mps 757 mmHg 47%
    12:00 +32°C° 0 mm 4 mps 757 mmHg 48%
    13:00 +32°C° 0 mm 5 mps 756 mmHg 50%
    14:00 +30°C° 0 mm 5 mps 756 mmHg 51%
    15:00 +30°C° 0 mm 6 mps 756 mmHg 52%
    16:00 +30°C° 0 mm 6 mps 755 mmHg 54%
    17:00 +28°C° 0 mm 6 mps 756 mmHg 60%
    18:00 +27°C° 0 mm 6 mps 756 mmHg 66%
    19:00 +26°C° 0 mm 5 mps 756 mmHg 72%
    20:00 +26°C° 0 mm 5 mps 757 mmHg 71%
    21:00 +26°C° 0 mm 5 mps 757 mmHg 71%
    22:00 +26°C° 0 mm 4 mps 758 mmHg 70%
    23:00 +25°C° 0 mm 4 mps 757 mmHg 71%

    Pasado mañana, 14 Diciembre, Sábado

    Tiempo Temperatura Precipitaciones Viento Presión Humedad
    00:00 +25°C° 0 mm 4 mps 757 mmHg 72%
    01:00 +25°C° 0 mm 4 mps 757 mmHg 73%
    02:00 +23°C° 0 mm 4 mps 756 mmHg 73%
    03:00 +23°C° 0 mm 4 mps 756 mmHg 74%
    04:00 +23°C° 0 mm 4 mps 756 mmHg 75%
    05:00 +24°C° 0 mm 3 mps 756 mmHg 73%
    06:00 +25°C° 0 mm 3 mps 756 mmHg 71%
    07:00 +25°C° 0 mm 2 mps 757 mmHg 69%
    08:00 +26°C° 0 mm 2 mps 757 mmHg 62%
    09:00 +28°C° 0 mm 2 mps 757 mmHg 56%
    10:00 +30°C° 0 mm 3 mps 757 mmHg 49%
    11:00 +30°C° 0 mm 3 mps 757 mmHg 50%
    12:00 +30°C° 0 mm 4 mps 756 mmHg 51%
    13:00 +32°C° 0 mm 5 mps 755 mmHg 52%
    14:00 +30°C° 0 mm 5 mps 755 mmHg 54%
    15:00 +30°C° 0 mm 5 mps 755 mmHg 56%
    16:00 +30°C° 0 mm 6 mps 755 mmHg 57%
    17:00 +29°C° 0 mm 5 mps 755 mmHg 62%
    18:00 +28°C° 0 mm 4 mps 756 mmHg 67%
    19:00 +27°C° 0 mm 4 mps 757 mmHg 71%
    20:00 +27°C° 0 mm 4 mps 758 mmHg 71%
    21:00 +27°C° 0 mm 3 mps 758 mmHg 72%
    22:00 +27°C° 0 mm 3 mps 759 mmHg 72%
    23:00 +26°C° 0 mm 3 mps 758 mmHg 74%

    15 Diciembre, Domingo

    Tiempo Temperatura Precipitaciones Viento Presión Humedad
    00:00 +26°C° 0 mm 3 mps 758 mmHg 76%
    01:00 +25°C° 0 mm 3 mps 757 mmHg 78%
    02:00 +25°C° 0 mm 2 mps 757 mmHg 78%
    03:00 +25°C° 0 mm 2 mps 757 mmHg 78%
    04:00 +25°C° 0 mm 1 mps 756 mmHg 78%
    05:00 +25°C° 0 mm 1 mps 757 mmHg 78%
    06:00 +25°C° 0 mm 1 mps 757 mmHg 77%
    07:00 +24°C° 0 mm 0 mps 757 mmHg 77%
    08:00 +27°C° 0 mm 1 mps 757 mmHg 71%
    09:00 +29°C° 0 mm 2 mps 757 mmHg 66%
    10:00 +30°C° 0 mm 3 mps 757 mmHg 60%
    11:00 +32°C° 0 mm 4 mps 757 mmHg 60%
    12:00 +32°C° 0 mm 5 mps 756 mmHg 59%
    13:00 +32°C° 0 mm 6 mps 756 mmHg 58%
    14:00 +32°C° 0 mm 6 mps 755 mmHg 60%
    15:00 +30°C° 0 mm 6 mps 755 mmHg 61%
    16:00 +30°C° 0 mm 6 mps 755 mmHg 62%
    17:00 +29°C° 0 mm 5 mps 755 mmHg 65%
    18:00 +29°C° 0 mm 4 mps 756 mmHg 68%
    19:00 +28°C° 0 mm 2 mps 756 mmHg 71%
    20:00 +28°C° 0 mm 2 mps 757 mmHg 71%
    21:00 +28°C° 0 mm 1 mps 757 mmHg 71%
    22:00 +25°C° 0 mm 0 mps 757 mmHg 71%
    23:00 +27°C° 0 mm 1 mps 757 mmHg 71%

    16 Diciembre, Lunes

    Tiempo Temperatura Precipitaciones Viento Presión Humedad
    00:00 +27°C° 0 mm 2 mps 757 mmHg 71%
    01:00 +27°C° 0 mm 2 mps 756 mmHg 71%
    02:00 +27°C° 0.1 mm 2 mps 756 mmHg 72%
    03:00 +27°C° 0.1 mm 1 mps 756 mmHg 73%
    04:00 +25°C° 0.1 mm 0 mps 756 mmHg 74%
    05:00 +27°C° 0.1 mm 1 mps 756 mmHg 73%
    06:00 +27°C° 0.1 mm 1 mps 756 mmHg 73%
    07:00 +27°C° 0.1 mm 1 mps 756 mmHg 73%
    08:00 +29°C° 0 mm 1 mps 756 mmHg 67%
    09:00 +30°C° 0 mm 1 mps 756 mmHg 61%
    10:00 +31°C° 0 mm 2 mps 756 mmHg 56%
    11:00 +33°C° 0 mm 3 mps 756 mmHg 56%
    12:00 +33°C° 0 mm 4 mps 755 mmHg 56%
    13:00 +33°C° 0 mm 5 mps 755 mmHg 56%
    14:00 +33°C° 0 mm 5 mps 754 mmHg 58%
    15:00 +32°C° 0 mm 5 mps 754 mmHg 60%
    16:00 +32°C° 0 mm 5 mps 753 mmHg 62%
    17:00 +30°C° 0 mm 4 mps 754 mmHg 66%
    18:00 +29°C° 0 mm 4 mps 755 mmHg 71%
    19:00 +28°C° 0 mm 3 mps 755 mmHg 75%
    20:00 +28°C° 0 mm 3 mps 756 mmHg 76%
    21:00 +28°C° 0 mm 3 mps 756 mmHg 76%
    22:00 +28°C° 0 mm 2 mps 757 mmHg 77%
    23:00 +28°C° 0 mm 2 mps 756 mmHg 77%

    17 Diciembre, Martes

    Tiempo Temperatura Precipitaciones Viento Presión Humedad
    00:00 +28°C° 0 mm 3 mps 756 mmHg 77%
    01:00 +28°C° 0 mm 3 mps 756 mmHg 77%
    02:00 +28°C° 0 mm 3 mps 755 mmHg 76%
    03:00 +28°C° 0 mm 3 mps 755 mmHg 75%
    04:00 +28°C° 0 mm 4 mps 755 mmHg 74%
    05:00 +28°C° 0 mm 3 mps 755 mmHg 72%
    06:00 +28°C° 0 mm 3 mps 755 mmHg 69%
    07:00 +29°C° 0 mm 2 mps 756 mmHg 67%
    08:00 +30°C° 0 mm 2 mps 756 mmHg 63%
    09:00 +31°C° 0 mm 3 mps 756 mmHg 59%
    10:00 +33°C° 0 mm 3 mps 756 mmHg 55%
    11:00 +34°C° 0 mm 4 mps 755 mmHg 54%
    12:00 +34°C° 0 mm 5 mps 754 mmHg 53%
    13:00 +34°C° 0 mm 6 mps 754 mmHg 52%
    14:00 +34°C° 0 mm 6 mps 754 mmHg 54%
    15:00 +33°C° 0 mm 7 mps 754 mmHg 56%
    16:00 +32°C° 0 mm 7 mps 753 mmHg 58%
    17:00 +30°C° 0 mm 7 mps 754 mmHg 61%
    18:00 +29°C° 0 mm 6 mps 754 mmHg 65%
    19:00 +28°C° 0 mm 5 mps 755 mmHg 68%
    20:00 +27°C° 0 mm 5 mps 755 mmHg 67%
    21:00 +27°C° 0 mm 4 mps 756 mmHg 66%
    22:00 +27°C° 0 mm 4 mps 756 mmHg 65%
    23:00 +27°C° 0 mm 3 mps 756 mmHg 64%
    Mostrar más